sat.trackr.live / text

‹ back to catalog

STARLINK-36112

NORAD 66944 · 2025-286V

PAYLOAD ACTIVE UNKNOWN

§ Identity

Operator
Country
US
Launch date
2025-12-07
Launch site
AFWTR
Launch vehicle
Mass (kg)
RCS (m²)

Purposes: comms

External: N2YO · Heavens-Above · Gunter

§ Orbital elements

Epoch: 2026-05-25T00:47:13.024896Z

Period
93.85 min
Inclination
53.1597°
Eccentricity
0.0000945
Mean motion
15.34412407 rev/d
Perigee alt
462.0 km
Apogee alt
463.3 km
Semi-major
6,840.8 km
B*
5.3339e-4
RAAN
3.2487°
Arg perigee
90.5116°
Mean anomaly
269.5995°
Rev number
2,711

§ Raw data

STARLINK-361121 66944U 25286V   26145.03278964  .00017695  00000+0  53339-3 0  99922 66944  53.1597   3.2487 0000945  90.5116 269.5995 15.34412407 27112

JSON: /api/v1/satellites/66944 · /tle

For live sub-satellite position, see the globe view (requires WebGL).

§ Visibility from observer

Set your observer location to see the next 7 days of passes ≥ 10°. The values pass through the URL so the page stays shareable.

No JS? Fill the form by hand. The geolocation button needs JavaScript.